Regional Weather Roundup
Issued by NWS Green Bay, WI

Home | Current Version | Previous Version | Graphics & Text | Print | Product List | Glossary Off
Versions: 1 2 3 4 5 6 7 8 9 10 11 12 13 14 15 16 17 18 19 20 21 22 23 24 25 26 27 28 29 30 31 32 33 34 35 36 37 38 39 40 41 42 43 44 45 46 47 48 49 50

000
ASUS43 KGRB 261110
RWRGRB

NORTH-CENTRAL AND NORTHEAST WISCONSIN REGIONAL WEATHER ROUNDUP
NATIONAL WEATHER SERVICE GREEN BAY WI
600 AM CDT THU MAR 26 2015

WIZ005-009-010>012-018-019-261200-
NORTH CENTRAL WISCONSIN

CITY           SKY/WX    TMP DP  RH WIND       PRES   REMARKS
IRONWOOD       CLOUDY    23  16  74 NW14G22   29.92R
MANITOWISH WTR CLOUDY    24  18  80 NW15G25   29.89R
ARBOR VITAE    CLOUDY    27  20  77 N15G29    29.88R
EAGLE RIVER    CLOUDY    26  19  73 NW10G21   29.86R
LAND O LAKES   LGT SNOW  26  20  80 NW10G20   29.87R
RHINELANDER    CLOUDY    28  21  75 NW14      29.87R
PHILLIPS       CLOUDY    28  21  76 NW12G17   29.90S
ANTIGO         CLOUDY    29  23  78 NW15G21   29.86S
TOMAHAWK       CLOUDY    28  21  75 NW9G20    29.89S
MERRILL        CLOUDY    30  22  72 NW15G23   29.89R
$$

WIZ013-073-261200-
NORTHEAST WISCONSIN

CITY           SKY/WX    TMP DP  RH WIND       PRES   REMARKS
IRON MOUNTAIN  CLOUDY    30  20  66 NW20G28   29.82S
MARINETTE      CLOUDY    36  23  60 NW5       29.84S
OCONTO         CLOUDY    34  25  69 W8        29.86F
$$

WIZ017-030-035>037-045-261200-
CENTRAL WISCONSIN

CITY           SKY/WX    TMP DP  RH WIND       PRES   REMARKS
MEDFORD        CLOUDY    28  21  74 NW16G24   29.91R
WAUSAU         CLOUDY    32  21  64 NW10G23   29.88S
MOSINEE        CLOUDY    34  23  64 NW16      29.90F
MARSHFIELD     CLOUDY    32  21  64 NW12G23   29.92S
WISC RAPIDS    CLOUDY    33  19  56 NW14G24   29.94S
STEVENS POINT  CLOUDY    31  20  63 W9G21     29.91S
WAUPACA        CLOUDY    36  21  55 NW14G21   29.91F
SHAWANO        CLOUDY    36  23  59 W6        29.89S
CLINTONVILLE   CLOUDY    34  23  64 NW13G18   29.89F
$$

WIZ038-039-048-051-261200-
FOX VALLEY

CITY           SKY/WX    TMP DP  RH WIND       PRES   REMARKS
NWS GREEN BAY  CLOUDY    35  24  64 W8        29.89S
APPLETON       CLOUDY    34  21  60 NW14G20   29.90S
OSHKOSH        CLOUDY    34  23  64 NW9       29.91R
FOND DU LAC    CLOUDY    34  23  64 NW9       29.92R
$$

WIZ022-050-052-261200-
EAST CENTRAL WISCONSIN

CITY           SKY/WX    TMP DP  RH WIND       PRES   REMARKS
STURGEON BAY   CLOUDY    34  21  60 W12       29.87S
MANITOWOC      CLOUDY    35  25  66 NW12      29.90R
SHEBOYGAN      CLOUDY    35  24  64 W7        29.90R
$$

LMZ563-521-522-541>543-261200-
LAKESHORE

STATION/POSITION TIME  TEMP    WIND        PRES    VSBY  WAVE
                       AIR SEA DIR/SP/G                  HT/PER
                 (UTC) (F)     (DEG/KT/KT) (MB)    (MI)  (FT/S)
SHEBOYGAN LKSHOR 1100   36     280/  9/ 11 1013.4R
KEWAUNEE LKSHORE 1100   35     280/  6/ 10 1010.8F
NORTHPORT PIER   1100   35     280/  6/ 13 1010.2F
SISTER BAY LKSHO 1100   33     280/ 10/ 11   N/A
CHAMBERS ISLAND  1100   35     240/  4/ 10 1010.8F
MENOMINEE LKSHOR 1100   35     270/  9     1011.5F
$$



USA.gov is the U.S. government's official web portal to all federal, state and local government web resources and services.